STARLINK-36966, 68044

Orbit data source: Space-Track

STARLINK-36966, 68044 is a payload satellite owned by SpaceX/Seattle (US) in LEO that was launched on Mon, 02 Mar 2026 UTC via an FALCON 9 launch vehicle from the Air Force Eastern Test Range (AFETR). Payload-class satellites include a variety of spacecraft equipped with specific instruments for various scientific and technological missions. These include communications satellites like Starlink; space stations such as the ISS; scientific satellites like the Hubble; Earth observation satellites from companies like Planet Labs, Umbra, and HawkEye 360; GPS; miniature CubeSats for education and research; and military/defense satellites.

Loading next visibility...
Identifier
68044, 2026-041E
Orbit
LEO
Country
Flag of USUS
Related business
Manufacturer
SpaceX/Seattle
Mission
Operational spacecraft
Bus & Motor
STARLINK V2MO, Unknown motor
Mass
575 kg wet, ~530 kg dry
Launch date (UTC)
2026-03-02 (1 month ago)
Launch vehicle
FALCON 9
Launch site
Air Force Eastern Test Range (AFETR)
Object type
Payload
Rocket body
Debris
Shape & HBR
Unknown shape, 17.7 m
Radar Cross Section
RCS unknown

Expand to show TLE details & history
Last TLE update: 7 hours ago

TLE from 7 hours ago
0 STARLINK-36966
1 68044U 26041E   26105.25002315  .00071520  00000-0  12852-2 0  9992
2 68044  53.1599 240.8820 0001090  75.6096 311.4422 15.49244077  5918
Epoch: 2026-04-15T06:00Z
TLE epoch observation values (Epoch: 2026-04-15T06:00:02.000Z)
Latitude
21.38803°
Longitude
-35.57591°
Altitude
419.04 km
Speed
7.663 km/s
True Right ascension
17h 11m 23s
True Declination
21° 15' 57"
Sunlit
Object was in full shadow at epoch
Visualization orbit readout
Latitude
Unknown
Longitude
Unknown
Altitude
Unknown
Speed
Unknown
Apparent Right ascension
Unknown
Apparent Declination
Unknown
Sunlit
N/A
Visualization observer readout
Local Sidereal Time
19:36:51
Azimuth
Unknown
Elevation
Unknown
Doppler factor
Unknown
Orbital elements
Apogee altitude
419.936 km
Perigee altitude
418.454 km
Semi-major axis
6,797.332 km
Eccentricity
0.00011
Inclination
53.1599°
RAAN
240.882°
Arg. of periapsis
75.6096°
True anomaly
311.43284°
Mean anomaly
311.4422°
Eccentric anomaly
311.43752°
Mean motion
3.87289 °/min
Orbital period
92.95 mins
BSTAR
0.0012852
Loading maneuver chart data...
Computing Atmospheric mass density...
Loading historical data...
Loading historical data...
Loading historical data...
Loading historical data...
Loading historical data...
Loading historical data...
Loading historical data...

Documentation

Showing up to 5 results
|